EW5196 Weather Reports


Display with metric or nautical units.
time (UTC)temp
F
wind
direction
speed
MPH
gust
MPH
rain 1hr
in
rain 24hr
in
rain mn
in
humidity
%
barometer
mb
20260903113026 73 147 0.0 0.0 0.00 0.00 0.00 99 1018.8
20260903112521 73 147 0.0 0.0 0.00 0.00 0.00 99 1018.6
20260903112021 73 164 0.0 1.0 0.00 0.00 0.00 99 1018.8
20260903111520 73 160 1.0 1.0 0.00 0.00 0.00 99 1018.9
20260903111017 73 159 0.0 1.0 0.00 0.00 0.00 99 1018.6
20260903110513 73 133 0.0 0.0 0.00 0.00 0.00 99 1018.7
20260903110007 73 159 0.0 0.0 0.00 0.00 0.00 99 1018.3
20260903105501 73 149 1.0 2.0 0.00 0.00 0.00 99 1018.4
20260903104956 73 147 1.0 1.0 0.00 0.00 0.00 99 1018.5
20260903104455 73 161 0.0 1.0 0.00 0.00 0.00 99 1018.3
20260903103952 73 96 0.0 1.0 0.00 0.00 0.00 99 1018.5
20260903103448 73 146 0.0 1.0 0.00 0.00 0.00 99 1018.4
20260903102943 73 145 0.0 1.0 0.00 0.00 0.00 99 1018.4
20260903102439 73 147 1.0 2.0 0.00 0.00 0.00 99 1018.4
20260903101937 73 124 1.0 1.0 0.00 0.00 0.00 99 1018.5
20260903101432 73 95 1.0 1.0 0.00 0.00 0.00 99 1018.4
20260903100928 73 160 0.0 0.0 0.00 0.00 0.00 99 1018.5
20260903100423 73 177 1.0 2.0 0.00 0.00 0.00 99 1018.4
20260903095920 73 213 0.0 3.0 0.00 0.00 0.00 99 1018.5
20260903095415 73 188 1.0 2.0 0.00 0.00 0.00 99 1018.3
20260903094910 74 163 1.0 2.0 0.00 0.00 0.00 99 1018.5
20260903094409 74 151 2.0 2.0 0.00 0.00 0.00 99 1018.3
20260903093905 74 159 0.0 1.0 0.00 0.00 0.00 99 1018.3
20260903093354 74 92 0.0 0.0 0.00 0.00 0.00 99 1018.4
20260903092850 74 156 0.0 1.0 0.00 0.00 0.00 99 1018.3
20260903092344 74 147 0.0 0.0 0.00 0.00 0.00 99 1018.3
20260903091843 74 59 0.0 0.0 0.00 0.00 0.00 99 1018.3
20260903091342 74 184 0.0 0.0 0.00 0.00 0.00 99 1018.2
20260903090837 74 165 0.0 0.0 0.00 0.00 0.00 99 1018.1
20260903090332 74 145 1.0 1.0 0.00 0.00 0.00 99 1018.2
20260903085830 74 152 2.0 2.0 0.00 0.00 0.00 99 1017.8
20260903085330 74 135 1.0 2.0 0.00 0.00 0.00 98 1017.9
20260903084829 74 149 1.0 2.0 0.00 0.00 0.00 99 1017.8
20260903084328 74 95 0.0 1.0 0.00 0.00 0.00 98 1017.8
20260903083823 74 79 0.0 1.0 0.00 0.00 0.00 98 1017.9
20260903083319 74 150 0.0 1.0 0.00 0.00 0.00 98 1017.8
20260903082818 74 157 0.0 1.0 0.00 0.00 0.00 98 1017.8
20260903082313 74 85 0.0 0.0 0.00 0.00 0.00 98 1017.8
20260903081809 74 123 0.0 1.0 0.00 0.00 0.00 98 1017.9
20260903081304 74 85 0.0 1.0 0.00 0.00 0.00 98 1018.0
20260903080801 74 85 0.0 1.0 0.00 0.00 0.00 98 1018.0
20260903080258 74 148 1.0 1.0 0.00 0.00 0.00 98 1018.1
20260903075757 74 161 0.0 1.0 0.00 0.00 0.00 98 1018.2
20260903075252 74 124 1.0 1.0 0.00 0.00 0.00 98 1018.1
20260903074751 74 149 1.0 2.0 0.00 0.00 0.00 98 1018.1
20260903074246 75 153 1.0 2.0 0.00 0.00 0.00 98 1018.3
20260903073741 75 151 1.0 2.0 0.00 0.00 0.00 98 1018.2
20260903073237 75 157 1.0 2.0 0.00 0.00 0.00 98 1018.1
20260903072733 75 170 1.0 2.0 0.00 0.00 0.00 98 1018.3
20260903072229 75 158 1.0 2.0 0.00 0.00 0.00 98 1018.3
20260903071725 75 129 2.0 2.0 0.00 0.00 0.00 98 1018.2
20260903071221 75 108 0.0 1.0 0.00 0.00 0.00 98 1018.2
20260903070720 75 143 0.0 1.0 0.00 0.00 0.00 98 1018.4
20260903070216 75 150 1.0 2.0 0.00 0.00 0.00 98 1018.2
20260903065711 75 154 0.0 1.0 0.00 0.00 0.00 98 1018.3
20260903065205 75 163 2.0 2.0 0.00 0.00 0.00 98 1018.2
20260903064704 75 168 1.0 2.0 0.00 0.00 0.00 98 1018.4
20260903064200 75 210 0.0 0.0 0.00 0.00 0.00 98 1018.4
20260903063655 75 245 1.0 1.0 0.00 0.00 0.00 97 1018.4
20260903063149 75 158 1.0 2.0 0.00 0.00 0.00 97 1018.5
20260903062646 75 159 0.0 0.0 0.00 0.00 0.00 97 1018.4
20260903062140 75 159 0.0 0.0 0.00 0.00 0.00 97 1018.5
20260903061635 75 171 0.0 1.0 0.00 0.00 0.00 97 1018.4
20260903061134 75 151 1.0 2.0 0.00 0.00 0.00 97 1018.6
20260903060630 75 163 0.0 1.0 0.00 0.00 0.00 97 1018.6
20260903060125 75 184 0.0 0.0 0.00 0.00 0.00 97 1018.4
20260903055622 75 184 0.0 0.0 0.00 0.00 0.00 97 1018.5
20260903055121 75 185 0.0 2.0 0.00 0.00 0.00 97 1018.6
20260903054616 76 147 2.0 2.0 0.00 0.00 0.00 96 1018.7
20260903054112 76 142 1.0 1.0 0.00 0.00 0.00 96 1018.8
20260903053607 76 149 1.0 1.0 0.00 0.00 0.00 95 1019.0
20260903053103 76 138 1.0 3.0 0.00 0.00 0.00 95 1018.8
20260903052559 76 172 1.0 2.0 0.00 0.00 0.00 95 1018.9
20260903052054 76 176 2.0 2.0 0.00 0.00 0.00 95 1018.8
20260903051549 76 252 1.0 2.0 0.00 0.00 0.00 95 1018.8
20260903051044 76 219 1.0 1.0 0.00 0.00 0.00 95 1018.8
20260903050544 76 162 0.0 3.0 0.00 0.00 0.00 95 1018.8
20260903050039 76 209 0.0 2.0 0.00 0.00 0.00 95 1018.9
20260903045538 76 181 0.0 2.0 0.00 0.00 0.00 95 1018.9
20260903045036 77 186 1.0 2.0 0.00 0.00 0.00 94 1018.7
20260903044531 77 138 2.0 2.0 0.00 0.00 0.00 94 1018.9
20260903044026 77 162 1.0 2.0 0.00 0.00 0.00 94 1019.0
20260903043522 77 168 1.0 2.0 0.00 0.00 0.00 94 1018.9
20260903043022 77 272 0.0 2.0 0.00 0.00 0.00 95 1018.9
20260903042522 77 203 1.0 2.0 0.00 0.00 0.00 95 1018.9
20260903042018 77 190 1.0 1.0 0.00 0.00 0.00 95 1018.9
20260903041514 77 220 0.0 0.0 0.00 0.00 0.00 95 1018.8
20260903041009 77 266 0.0 0.0 0.00 0.00 0.00 96 1018.7
20260903040508 77 92 0.0 1.0 0.00 0.00 0.00 96 1018.4
20260903040008 77 187 0.0 0.0 0.00 0.00 0.00 96 1018.4
20260903035500 77 145 2.0 2.0 0.00 0.00 0.00 96 1018.6
20260903034955 77 177 0.0 0.0 0.00 0.00 0.00 96 1018.8
20260903034450 77 156 0.0 1.0 0.00 0.00 0.00 96 1018.7
20260903033949 77 147 0.0 1.0 0.00 0.00 0.00 96 1018.4
20260903033445 77 223 0.0 2.0 0.00 0.00 0.00 95 1018.4
20260903032940 77 134 0.0 0.0 0.00 0.00 0.00 95 1018.2
20260903032436 77 154 0.0 0.0 0.00 0.00 0.00 95 1018.3
20260903031931 77 148 1.0 2.0 0.00 0.00 0.00 95 1018.2
20260903031431 77 144 1.0 1.0 0.00 0.00 0.00 95 1018.5
20260903030926 77 67 0.0 0.0 0.00 0.00 0.00 95 1018.6
20260903030422 77 136 0.0 1.0 0.00 0.00 0.00 95 1018.4
20260903025918 77 159 0.0 0.0 0.00 0.00 0.00 95 1018.4
20260903025413 77 127 1.0 2.0 0.00 0.00 0.00 94 1018.4
20260903024908 77 147 0.0 0.0 0.00 0.00 0.00 94 1018.7
20260903024402 77 127 1.0 1.0 0.00 0.00 0.00 94 1018.5
20260903023857 77 142 1.0 1.0 0.00 0.00 0.00 94 1018.7
20260903023353 77 165 0.0 0.0 0.00 0.00 0.00 94 1018.6
20260903022848 77 79 0.0 1.0 0.00 0.00 0.00 93 1018.6
20260903022347 78 125 1.0 2.0 0.00 0.00 0.00 93 1018.8
20260903021846 78 173 1.0 2.0 0.00 0.00 0.00 92 1018.7
20260903021342 78 170 1.0 2.0 0.00 0.00 0.00 92 1018.7
20260903020841 78 187 0.0 1.0 0.00 0.00 0.00 92 1018.9
20260903020337 78 184 1.0 2.0 0.00 0.00 0.00 92 1018.9
20260903015831 78 174 1.0 2.0 0.00 0.00 0.00 91 1019.0
20260903015326 78 150 0.0 1.0 0.00 0.00 0.00 91 1019.1
20260903014822 78 203 1.0 2.0 0.00 0.00 0.00 91 1019.0
20260903014316 78 187 0.0 1.0 0.00 0.00 0.00 91 1019.1
20260903013811 79 172 0.0 1.0 0.00 0.00 0.00 91 1019.0
20260903013309 79 140 0.0 2.0 0.00 0.00 0.00 91 1019.0
20260903012808 79 158 1.0 1.0 0.00 0.00 0.00 90 1019.1
20260903012258 80 155 1.0 1.0 0.00 0.00 0.00 89 1019.0
20260903011757 80 178 1.0 2.0 0.00 0.00 0.00 89 1019.2
20260903011256 80 202 2.0 2.0 0.00 0.00 0.00 88 1019.0
20260903010752 80 123 0.0 2.0 0.00 0.00 0.00 87 1018.9
20260903010247 81 143 0.0 1.0 0.00 0.00 0.00 87 1018.7
20260903005746 81 138 1.0 2.0 0.00 0.00 0.00 86 1018.9
20260903005241 81 159 0.0 2.0 0.00 0.00 0.00 86 1019.0
20260903004736 81 132 1.0 2.0 0.00 0.00 0.00 85 1018.6
20260903004232 81 235 0.0 0.0 0.00 0.00 0.00 86 1018.8
20260903003727 81 162 1.0 2.0 0.00 0.00 0.00 86 1018.6
20260903003223 81 272 0.0 1.0 0.00 0.00 0.00 86 1018.5
20260903002717 81 133 1.0 2.0 0.00 0.00 0.00 85 1018.5
20260903002211 82 119 2.0 2.0 0.00 0.00 0.00 85 1018.4
20260903001707 82 159 0.0 0.0 0.00 0.00 0.00 82 1018.5
20260903001201 82 232 0.0 0.0 0.00 0.00 0.00 82 1018.7
20260903000657 82 159 0.0 0.0 0.00 0.00 0.00 82 1018.6
20260903000155 83 123 1.0 1.0 0.00 0.00 0.00 81 1018.5
20260902235654 83 133 1.0 2.0 0.00 0.00 0.00 80 1018.7
20260902235144 83 166 1.0 1.0 0.00 0.00 0.00 80 1018.5
20260902234643 83 111 1.0 2.0 0.00 0.00 0.00 80 1018.5
20260902234142 84 105 2.0 3.0 0.00 0.00 0.00 79 1018.4
20260902233638 84 127 2.0 2.0 0.00 0.00 0.00 79 1018.3
20260902233137 84 242 0.0 0.0 0.00 0.00 0.00 80 1018.1
20260902232636 84 125 2.0 2.0 0.00 0.00 0.00 80 1018.6
20260902232136 85 129 1.0 2.0 0.00 0.00 0.00 79 1018.5
20260902231636 85 94 1.0 1.0 0.00 0.00 0.00 78 1018.8
20260902231130 85 20 1.0 2.0 0.00 0.00 0.00 78 1018.8
20260902230626 85 55 0.0 0.0 0.00 0.00 0.00 78 1019.2
20260902230124 85 229 0.0 3.0 0.00 0.00 0.00 77 1019.3
20260902225620 85 190 2.0 2.0 0.00 0.00 0.00 78 1019.0
20260902225119 84 232 0.0 2.0 0.00 0.00 0.00 78 1018.7
20260902224618 84 248 0.0 1.0 0.00 0.00 0.00 78 1018.6
20260902224114 84 147 0.0 2.0 0.00 0.00 0.00 77 1018.5
20260902223610 84 178 0.0 2.0 0.00 0.00 0.00 76 1019.0
20260902223109 85 358 2.0 2.0 0.00 0.00 0.00 74 1019.0
20260902222608 85 340 0.0 1.0 0.00 0.00 0.00 73 1019.1
20260902222107 85 119 0.0 0.0 0.00 0.00 0.00 72 1019.2
20260902221601 85 194 0.0 1.0 0.00 0.00 0.00 70 1019.3
20260902221056 85 140 1.0 2.0 0.00 0.00 0.00 69 1019.3
20260902220552 86 57 1.0 3.0 0.00 0.00 0.00 69 1018.8
20260902220046 86 141 2.0 2.0 0.00 0.00 0.00 67 1018.7
20260902215542 87 35 1.0 1.0 0.00 0.00 0.00 66 1018.8
20260902215037 87 255 2.0 3.0 0.00 0.00 0.00 65 1019.0
20260902214532 87 20 2.0 3.0 0.00 0.00 0.00 65 1018.9
20260902214031 87 329 0.0 3.0 0.00 0.00 0.00 65 1018.8
20260902213527 88 226 1.0 6.0 0.00 0.00 0.00 64 1018.9
20260902213026 89 227 7.0 11.0 0.00 0.00 0.00 62 1018.8
20260902212522 89 155 4.0 5.0 0.00 0.00 0.00 62 1018.8
20260902212018 90 210 5.0 6.0 0.00 0.00 0.00 61 1018.6
20260902211514 90 26 1.0 5.0 0.00 0.00 0.00 63 1018.5
20260902211009 91 78 2.0 5.0 0.00 0.00 0.00 62 1018.5
20260902210508 91 176 1.0 5.0 0.00 0.00 0.00 62 1018.5
20260902210008 92 299 0.0 4.0 0.00 0.00 0.00 62 1018.4
20260902205502 93 277 2.0 3.0 0.00 0.00 0.00 60 1018.2
20260902204958 94 247 3.0 4.0 0.00 0.00 0.00 56 1018.5
20260902204457 94 282 4.0 10.0 0.00 0.00 0.00 56 1018.3
20260902203952 94 293 2.0 2.0 0.00 0.00 0.00 57 1018.4
20260902203448 95 25 3.0 8.0 0.00 0.00 0.00 55 1018.6
20260902202946 95 218 3.0 5.0 0.00 0.00 0.00 54 1018.5
20260902202443 95 344 2.0 5.0 0.00 0.00 0.00 54 1018.3
20260902201939 95 270 2.0 3.0 0.00 0.00 0.00 53 1018.3
20260902201434 96 336 2.0 4.0 0.00 0.00 0.00 52 1018.5
20260902200934 96 285 2.0 2.0 0.00 0.00 0.00 51 1018.7
20260902200430 96 315 0.0 2.0 0.00 0.00 0.00 51 1018.6
20260902195925 95 259 1.0 7.0 0.00 0.00 0.00 49 1018.5
20260902195420 96 281 5.0 6.0 0.00 0.00 0.00 49 1018.7
20260902194914 96 277 3.0 7.0 0.00 0.00 0.00 50 1018.6
20260902194414 95 266 6.0 6.0 0.00 0.00 0.00 51 1018.4
20260902193909 95 202 1.0 2.0 0.00 0.00 0.00 52 1018.6
20260902193405 96 265 0.0 3.0 0.00 0.00 0.00 50 1018.5
20260902192903 96 186 1.0 6.0 0.00 0.00 0.00 51 1018.3
20260902192403 96 243 5.0 5.0 0.00 0.00 0.00 51 1018.4
20260902191856 96 320 2.0 4.0 0.00 0.00 0.00 50 1018.5
20260902191352 96 159 0.0 3.0 0.00 0.00 0.00 52 1018.7
20260902190847 95 174 3.0 5.0 0.00 0.00 0.00 52 1018.4
20260902190347 95 9 3.0 3.0 0.00 0.00 0.00 52 1018.6
20260902185843 96 331 2.0 3.0 0.00 0.00 0.00 52 1018.8
20260902185338 94 261 1.0 3.0 0.00 0.00 0.00 54 1018.9
20260902184834 94 272 0.0 1.0 0.00 0.00 0.00 56 1018.8
20260902184329 94 157 0.0 3.0 0.00 0.00 0.00 54 1018.9
20260902183825 94 194 2.0 5.0 0.00 0.00 0.00 55 1019.1
20260902183321 95 281 4.0 6.0 0.00 0.00 0.00 53 1019.2
20260902182817 95 190 1.0 2.0 0.00 0.00 0.00 54 1019.2
20260902182313 95 203 0.0 6.0 0.00 0.00 0.00 54 1019.1
20260902181809 95 201 1.0 5.0 0.00 0.00 0.00 53 1019.2
20260902181309 95 345 2.0 3.0 0.00 0.00 0.00 53 1019.0
20260902180804 95 148 2.0 5.0 0.00 0.00 0.00 54 1019.1
20260902180300 95 268 1.0 4.0 0.00 0.00 0.00 54 1019.4
20260902175755 95 271 2.0 4.0 0.00 0.00 0.00 53 1019.3
20260902175250 95 230 2.0 5.0 0.00 0.00 0.00 53 1019.4
20260902174746 95 252 2.0 5.0 0.00 0.00 0.00 51 1019.3
20260902174242 94 279 3.0 3.0 0.00 0.00 0.00 54 1019.4
20260902173737 94 151 2.0 3.0 0.00 0.00 0.00 52 1019.3
20260902173237 94 291 3.0 5.0 0.00 0.00 0.00 54 1019.4
20260902172732 94 64 0.0 5.0 0.00 0.00 0.00 53 1019.2
20260902172232 94 243 4.0 5.0 0.00 0.00 0.00 54 1019.1
20260902171727 93 207 5.0 5.0 0.00 0.00 0.00 53 1019.4
20260902171222 93 163 8.0 9.0 0.00 0.00 0.00 53 1019.3
20260902170718 93 249 4.0 6.0 0.00 0.00 0.00 54 1019.3
20260902170214 94 150 1.0 5.0 0.00 0.00 0.00 54 1019.2
20260902165713 93 217 2.0 3.0 0.00 0.00 0.00 54 1019.3
20260902165209 93 230 4.0 4.0 0.00 0.00 0.00 54 1019.2
20260902164709 93 202 5.0 6.0 0.00 0.00 0.00 54 1019.3
20260902164203 93 182 0.0 3.0 0.00 0.00 0.00 54 1019.4
20260902163658 93 211 0.0 4.0 0.00 0.00 0.00 54 1019.3
20260902163157 93 232 3.0 5.0 0.00 0.00 0.00 55 1019.4
20260902162656 93 127 3.0 3.0 0.00 0.00 0.00 55 1019.3
20260902162150 92 236 0.0 5.0 0.00 0.00 0.00 56 1019.3
20260902161646 92 127 1.0 4.0 0.00 0.00 0.00 56 1019.6
20260902161141 92 252 2.0 3.0 0.00 0.00 0.00 56 1019.1
20260902160638 92 247 0.0 4.0 0.00 0.00 0.00 56 1019.5
20260902160132 91 267 1.0 4.0 0.00 0.00 0.00 58 1019.5
20260902155631 92 30 0.0 3.0 0.00 0.00 0.00 57 1019.6
20260902155130 92 206 0.0 5.0 0.00 0.00 0.00 57 1019.5
20260902154625 92 140 2.0 3.0 0.00 0.00 0.00 59 1019.5
20260902154120 92 304 0.0 2.0 0.00 0.00 0.00 58 1019.6
20260902153619 92 147 2.0 3.0 0.00 0.00 0.00 61 1019.6
20260902153114 91 269 2.0 2.0 0.00 0.00 0.00 59 1019.7
20260902152611 91 287 0.0 4.0 0.00 0.00 0.00 59 1019.6
20260902152105 90 269 2.0 5.0 0.00 0.00 0.00 59 1019.6
20260902151601 90 226 2.0 2.0 0.00 0.00 0.00 60 1019.7
20260902151100 90 282 3.0 5.0 0.00 0.00 0.00 61 1019.6
20260902150556 90 174 1.0 4.0 0.00 0.00 0.00 60 1019.8
20260902150051 90 273 0.0 2.0 0.00 0.00 0.00 61 1019.9
20260902145546 90 262 4.0 4.0 0.00 0.00 0.00 62 1019.7
20260902145045 90 154 0.0 2.0 0.00 0.00 0.00 61 1019.7
20260902144537 89 196 3.0 4.0 0.00 0.00 0.00 61 1019.9
20260902144037 89 179 2.0 2.0 0.00 0.00 0.00 62 1019.9
20260902143538 89 216 2.0 5.0 0.00 0.00 0.00 61 1020.1
20260902143034 89 152 0.0 1.0 0.00 0.00 0.00 62 1019.8
20260902142529 90 248 2.0 3.0 0.00 0.00 0.00 61 1019.7
20260902142024 90 275 3.0 5.0 0.00 0.00 0.00 63 1019.7
20260902141524 89 239 3.0 4.0 0.00 0.00 0.00 64 1019.7
20260902141019 89 175 1.0 2.0 0.00 0.00 0.00 65 1019.7
20260902140514 88 259 0.0 4.0 0.00 0.00 0.00 66 1019.7
20260902140010 87 92 0.0 2.0 0.00 0.00 0.00 68 1019.5
20260902135504 86 260 2.0 2.0 0.00 0.00 0.00 71 1019.7
20260902135003 84 182 0.0 3.0 0.00 0.00 0.00 73 1019.5
20260902134459 84 162 2.0 2.0 0.00 0.00 0.00 76 1019.6
20260902133954 83 209 1.0 2.0 0.00 0.00 0.00 78 1019.4
20260902133448 82 176 0.0 1.0 0.00 0.00 0.00 81 1019.5
20260902132943 82 152 0.0 2.0 0.00 0.00 0.00 80 1019.5
20260902132439 82 137 0.0 2.0 0.00 0.00 0.00 80 1019.5
20260902131933 82 250 2.0 3.0 0.00 0.00 0.00 78 1019.2
20260902131430 81 203 0.0 1.0 0.00 0.00 0.00 81 1019.4
20260902130929 80 244 2.0 3.0 0.00 0.00 0.00 84 1019.3
20260902130425 79 210 0.0 0.0 0.00 0.00 0.00 87 1019.5
20260902125920 78 223 0.0 1.0 0.00 0.00 0.00 87 1019.6
20260902125416 78 166 1.0 2.0 0.00 0.00 0.00 89 1019.4
20260902124912 77 106 0.0 1.0 0.00 0.00 0.00 90 1019.6
20260902124408 77 158 0.0 1.0 0.00 0.00 0.00 91 1019.3
20260902123903 76 165 0.0 1.0 0.00 0.00 0.00 93 1019.5
20260902123359 76 133 1.0 2.0 0.00 0.00 0.00 95 1019.4
20260902122857 76 105 0.0 0.0 0.00 0.00 0.00 96 1019.4
20260902122353 75 105 0.0 0.0 0.00 0.00 0.00 96 1019.1
20260902121848 75 119 0.0 1.0 0.00 0.00 0.00 95 1019.4
20260902121343 75 143 0.0 0.0 0.00 0.00 0.00 95 1019.2
20260902120838 75 191 0.0 1.0 0.00 0.00 0.00 95 1019.1
20260902120334 75 179 0.0 1.0 0.00 0.00 0.00 95 1019.2
20260902115828 75 191 0.0 1.0 0.00 0.00 0.00 95 1019.2
20260902115325 75 186 0.0 2.0 0.00 0.00 0.00 96 1019.3
20260902114821 75 204 0.0 1.0 0.00 0.00 0.00 96 1019.3
20260902114317 75 193 1.0 2.0 0.00 0.00 0.00 96 1019.2
20260902113816 75 176 1.0 2.0 0.00 0.00 0.00 96 1019.2
20260902113312 75 185 0.0 2.0 0.00 0.00 0.00 96 1019.2